[[{"header":{"parameterUnit":"m.s-1","parameterCategory":1,"la1":30.2991,"la2":30.254,"lo1":-89.0895,"lo2":-89.0444,"dy":0.0017,"dx":0.0017,"nx":28,"ny":28,"refTime":"2025-02-05T09:00:00:Z","depth":0,"parameterNumber":2,"parameterNumberName":"U-component_of_WINDS"},"data":[0,0,0,0,0,0,0,0,0,0,0,0,0,0,0,0,0,0,0,0,0,0,0,0,0,0,0,0,0,0,0,0,0,0,0,0,0,0,0,0,0,0,0,0,0,0,0,0,0,0,0,0,0,0,0,0,0,0,-1.2389,-1.2389,0,-1.233,-1.2329,-1.2329,-1.2263,-1.2262,-1.2261,-1.226,-1.2198,-1.2197,-1.2196,0,0,0,0,0,0,0,0,0,0,0,0,0,-1.2444,-1.2444,-1.2389,-1.2389,-1.2388,-1.233,-1.2329,-1.2329,-1.2263,-1.2262,-1.2261,-1.226,-1.2198,-1.2197,-1.2196,0,0,0,0,0,0,0,0,0,0,0,0,0,-1.2406,-1.2444,-1.2389,-1.2348,-1.2344,-1.233,-1.2329,-1.2328,-1.2263,-1.2262,-1.2261,-1.2259,-1.2198,-1.2197,-1.2196,-1.2218,0,0,-1.2193,-1.2192,0,0,0,0,0,0,0,0,-1.2409,-1.2404,-1.2355,-1.2351,-1.2346,-1.2303,-1.2326,-1.2291,-1.2264,-1.2294,-1.226,-1.2259,-1.2234,-1.223,-1.2222,-1.2215,-1.2212,-1.2193,-1.2192,-1.2191,-1.2191,0,0,0,0,0,0,0,-1.2411,-1.2407,-1.2366,-1.2354,-1.2349,-1.2332,-1.2325,-1.2319,-1.2273,-1.2291,-1.2286,-1.228,-1.2231,-1.2223,-1.222,-1.2211,-1.2193,-1.2192,-1.2191,-1.219,-1.2219,-1.222,0,0,0,0,0,0,-1.242,-1.2409,-1.2368,-1.2364,-1.2375,-1.2333,-1.2325,-1.2318,-1.2272,-1.2264,-1.2282,-1.2278,-1.2226,-1.2221,-1.2217,-1.2238,-1.2191,-1.219,-1.219,-1.2217,-1.2219,-1.2221,0,0,0,0,0,0,-1.2422,-1.2417,-1.237,-1.2385,-1.2378,-1.2333,-1.2326,-1.2318,-1.2309,-1.2265,-1.2256,-1.2282,-1.2224,-1.2219,-1.2218,-1.2235,-1.219,-1.2189,-1.2216,-1.2218,-1.222,-1.2282,0,0,0,0,0,0,-1.2424,-1.2418,-1.2426,-1.2386,-1.2377,-1.2372,-1.2327,-1.2317,-1.2308,-1.2302,-1.2263,-1.2255,-1.2223,-1.222,-1.2217,-1.2233,-1.2188,-1.2214,-1.2217,-1.2219,-1.2278,-1.2286,-1.2293,0,0,0,0,0,-1.2426,-1.2446,-1.2427,-1.2422,-1.2387,-1.2374,-1.2369,-1.2331,-1.2309,-1.2317,-1.2289,-1.2257,-1.2235,-1.2221,-1.2217,-1.2233,-1.2212,-1.2216,-1.2219,-1.2275,-1.2285,-1.2293,0,0,0,0,0,0,-1.2488,-1.244,-1.2418,-1.2426,-1.2405,-1.2363,-1.237,-1.2343,-1.2327,-1.2322,-1.2275,-1.2267,-1.2272,-1.2252,-1.2238,-1.2251,-1.2219,-1.2222,-1.2263,-1.2272,-1.2279,-1.2283,-1.2187,0,0,0,0,0,-1.2503,-1.2497,-1.2455,-1.2466,-1.2456,-1.2416,-1.2409,-1.2382,-1.2357,-1.2348,-1.2319,-1.2297,-1.2285,-1.2277,-1.2264,-1.2276,-1.2266,-1.2285,-1.2292,-1.2299,-1.2301,-1.2305,-1.2312,-1.2231,-1.2231,-1.2231,0,0,-1.2533,-1.2506,-1.2505,-1.2478,-1.2458,-1.2452,-1.2408,-1.2404,-1.2399,-1.2347,-1.2344,-1.2323,-1.2295,-1.23,-1.2301,-1.2284,-1.2321,-1.2303,-1.2308,-1.2306,-1.2309,-1.2317,-1.2323,-1.2233,-1.2233,-1.2233,0,0,-1.2585,-1.2564,-1.257,-1.2552,-1.2523,-1.2496,-1.2498,-1.246,-1.2444,-1.2441,-1.2402,-1.2396,-1.2376,-1.2357,-1.2345,-1.2391,-1.236,-1.2388,-1.2425,-1.243,-1.2436,-1.2442,-1.2457,-1.2463,-1.2391,-1.2391,-1.2391,0,-1.2625,-1.2616,-1.2577,-1.2575,-1.2564,-1.2518,-1.2524,-1.2508,-1.2476,-1.2469,-1.245,-1.2425,-1.2402,-1.2403,-1.2414,-1.2406,-1.2406,-1.2391,-1.2439,-1.2444,-1.2448,-1.2462,-1.2468,-1.2394,-1.2394,-1.2394,-1.2393,0,-1.2667,-1.2661,-1.2669,-1.264,-1.263,-1.2632,-1.2594,-1.2588,-1.2563,-1.2538,-1.2535,-1.2507,-1.2487,-1.2486,-1.2461,-1.2482,-1.2472,-1.2447,-1.2414,-1.246,-1.2472,-1.2477,-1.2399,-1.2398,-1.2397,-1.2396,0,0,-1.2754,-1.2704,-1.2708,-1.2694,-1.2659,-1.2653,-1.2654,-1.2635,-1.263,-1.2611,-1.2609,-1.2594,-1.257,-1.2557,-1.2529,-1.2534,-1.2571,-1.2508,-1.2506,-1.2519,-1.2592,-1.2609,-1.2616,-1.2551,-1.2552,-1.2553,-1.2593,0,-1.2798,-1.2795,-1.2761,-1.2768,-1.2761,-1.2718,-1.2718,-1.2697,-1.2674,-1.2665,-1.2639,-1.2629,-1.2599,-1.2591,-1.2593,-1.2566,-1.2584,-1.2563,-1.2548,-1.2548,-1.2554,-1.2623,-1.2641,-1.268,-1.2598,-1.2599,-1.2599,0,-1.2848,-1.2831,-1.2838,-1.2803,-1.2799,-1.28,-1.2779,-1.2772,-1.2747,-1.273,-1.2715,-1.2685,-1.2682,-1.2653,-1.2647,-1.2633,-1.2626,-1.2612,-1.2612,-1.2607,-1.2575,-1.2618,-1.2692,-1.2698,-1.2607,-1.2606,-1.2606,0,-1.2909,-1.2889,-1.2889,-1.2879,-1.2839,-1.284,-1.2824,-1.2797,-1.2788,-1.2771,-1.2764,-1.2747,-1.2737,-1.2724,-1.2689,-1.2671,-1.2688,-1.2655,-1.2672,-1.2673,-1.2675,-1.2675,-1.2748,-1.2674,-1.2674,-1.2674,-1.2674,0,-1.296,-1.2965,-1.2916,-1.2917,-1.2921,-1.2882,-1.2888,-1.2867,-1.2844,-1.2839,-1.2802,-1.2798,-1.2753,-1.2745,-1.2718,-1.2717,-1.2713,-1.2699,-1.2691,-1.2701,-1.2702,-1.2693,-1.2689,-1.2676,-1.2675,-1.2675,-1.2675,0,-1.3028,-1.2996,-1.2993,-1.2956,-1.2947,-1.2952,-1.292,-1.2918,-1.2894,-1.2888,-1.2885,-1.2846,-1.2834,-1.2799,-1.2777,-1.2759,-1.2766,-1.2753,-1.2774,-1.2769,-1.2787,-1.2785,-1.2854,-1.2861,-1.2786,-1.2786,-1.2787,0,-1.3062,-1.3065,-1.3028,-1.3023,-1.3008,-1.2999,-1.299,-1.2952,-1.2944,-1.2916,-1.2918,-1.2903,-1.2888,-1.2871,-1.284,-1.2824,-1.2809,-1.2835,-1.2806,-1.2816,-1.2807,-1.2807,-1.2806,-1.284,-1.2841,-1.2842,-1.2842,0,-1.3125,-1.3109,-1.3097,-1.308,-1.307,-1.3054,-1.3037,-1.3034,-1.2992,-1.2985,-1.2972,-1.2961,-1.294,-1.2925,-1.2904,-1.2886,-1.2857,-1.2852,-1.2855,-1.2864,-1.2875,-1.2867,-1.2789,-1.285,-1.2849,-1.2849,-1.2848,-1.2848,-1.3175,-1.3176,-1.315,-1.3138,-1.3121,-1.3106,-1.3102,-1.3078,-1.3067,-1.3047,-1.3026,-1.3015,-1.299,-1.2959,-1.2943,-1.2934,-1.2919,-1.2923,-1.2924,-1.2925,-1.2929,-1.2879,-1.293,-1.293,-1.293,-1.293,-1.2929,0,-1.3235,-1.3217,-1.3206,-1.3183,-1.3173,-1.3149,-1.3128,-1.3122,-1.3113,-1.3093,-1.308,-1.3065,-1.3051,-1.302,-1.3002,-1.3001,-1.2987,-1.2998,-1.2996,-1.2992,-1.2944,-1.2943,-1.3009,-1.3009,-1.3009,-1.3009,-1.3009,-1.3009,-1.3264,-1.3264,-1.3245,-1.3235,-1.3217,-1.3207,-1.3197,-1.3182,-1.3166,-1.3151,-1.3139,-1.312,-1.3095,-1.3075,-1.3061,-1.3052,-1.3047,-1.3061,-1.3048,-1.3003,-1.2996,-1.2988,-1.2987,-1.3061,-1.3061,-1.3096,-1.3096,-1.3097]},{"header":{"parameterUnit":"m.s-1","parameterCategory":1,"la1":30.2991,"la2":30.254,"lo1":-89.0895,"lo2":-89.0444,"dy":0.0017,"dx":0.0017,"nx":28,"ny":28,"refTime":"2025-02-05T09:00:00:Z","depth":0,"parameterNumber":3,"parameterNumberName":"V-component_of_WINDS"},"data":[0,0,0,0,0,0,0,0,0,0,0,0,0,0,0,0,0,0,0,0,0,0,0,0,0,0,0,0,0,0,0,0,0,0,0,0,0,0,0,0,0,0,0,0,0,0,0,0,0,0,0,0,0,0,0,0,0,0,1.7279,1.7279,0,1.7261,1.7261,1.7261,1.727,1.727,1.7271,1.7271,1.7251,1.725,1.7249,0,0,0,0,0,0,0,0,0,0,0,0,0,1.7318,1.7318,1.7279,1.7279,1.7278,1.7261,1.7261,1.7261,1.727,1.727,1.7271,1.7272,1.7251,1.725,1.7249,0,0,0,0,0,0,0,0,0,0,0,0,0,1.7301,1.7317,1.7279,1.7281,1.7281,1.7261,1.7261,1.7261,1.727,1.727,1.7271,1.7272,1.7251,1.725,1.7249,1.7225,0,0,1.7244,1.7243,0,0,0,0,0,0,0,0,1.7302,1.73,1.7281,1.7281,1.7281,1.7269,1.7268,1.7249,1.727,1.7274,1.7271,1.7272,1.7256,1.7254,1.7249,1.7224,1.7223,1.7244,1.7243,1.7242,1.7242,0,0,0,0,0,0,0,1.7303,1.73,1.7272,1.7281,1.728,1.7282,1.728,1.7264,1.7261,1.7274,1.7274,1.7272,1.7256,1.7251,1.7249,1.7223,1.7244,1.7243,1.7242,1.7241,1.718,1.7179,0,0,0,0,0,0,1.7305,1.7301,1.7272,1.7271,1.7293,1.7281,1.7279,1.7272,1.7261,1.726,1.7272,1.7273,1.7253,1.7251,1.7248,1.7221,1.7242,1.7241,1.724,1.718,1.7179,1.7179,0,0,0,0,0,0,1.7305,1.7302,1.7273,1.7286,1.7283,1.7279,1.7271,1.7271,1.7266,1.726,1.7259,1.7267,1.7253,1.725,1.7231,1.7221,1.724,1.7239,1.7181,1.718,1.7179,1.7167,0,0,0,0,0,0,1.7306,1.7302,1.7294,1.7286,1.7282,1.7257,1.7271,1.727,1.7263,1.7265,1.7255,1.7254,1.7254,1.7234,1.723,1.7219,1.7238,1.7182,1.7181,1.7179,1.7168,1.7165,1.7163,0,0,0,0,0,1.7308,1.729,1.7293,1.729,1.7272,1.7257,1.7254,1.7255,1.7262,1.7254,1.725,1.7254,1.7222,1.7232,1.7228,1.7216,1.7183,1.7181,1.7179,1.7169,1.7166,1.7163,0,0,0,0,0,0,1.7295,1.7289,1.7292,1.7272,1.7265,1.7258,1.7247,1.7251,1.7241,1.7242,1.7242,1.724,1.7221,1.7216,1.7227,1.7193,1.7204,1.7201,1.7197,1.7194,1.7191,1.7193,1.7237,0,0,0,0,0,1.729,1.7279,1.7274,1.7256,1.7253,1.725,1.7244,1.7245,1.7237,1.7234,1.7229,1.7221,1.7209,1.7201,1.719,1.7167,1.7166,1.7157,1.7155,1.7153,1.7151,1.7139,1.7136,1.7173,1.7173,1.7173,0,0,1.7279,1.7274,1.7267,1.7253,1.7248,1.7236,1.7248,1.7234,1.7226,1.7232,1.7214,1.721,1.7201,1.7181,1.7171,1.7176,1.714,1.7151,1.7149,1.7148,1.7137,1.7134,1.7131,1.7172,1.7172,1.7172,0,0,1.7253,1.7248,1.7234,1.7228,1.7221,1.722,1.7216,1.7209,1.7207,1.719,1.7195,1.7184,1.7163,1.7157,1.7151,1.7124,1.7128,1.712,1.7107,1.7096,1.7093,1.709,1.7082,1.7078,1.7118,1.7118,1.7118,0,1.724,1.7223,1.7225,1.7212,1.7206,1.7212,1.7198,1.7192,1.7181,1.7176,1.7182,1.7157,1.7151,1.713,1.7124,1.7119,1.7115,1.7121,1.7093,1.7091,1.7088,1.708,1.7077,1.7117,1.7117,1.7117,1.7117,0,1.7208,1.7197,1.7186,1.7176,1.7169,1.7155,1.7154,1.7146,1.7148,1.7147,1.7129,1.7123,1.7111,1.7106,1.7107,1.7085,1.7088,1.7094,1.7104,1.7084,1.7076,1.7073,1.7116,1.7116,1.7116,1.7117,0,0,1.7174,1.7166,1.7162,1.7158,1.7151,1.7142,1.7128,1.7117,1.7111,1.7103,1.7092,1.7075,1.708,1.7074,1.7074,1.7064,1.7045,1.7071,1.7071,1.7067,1.7021,1.7017,1.7014,1.7047,1.7046,1.7046,1.7022,0,1.7148,1.7126,1.7127,1.7106,1.7095,1.7101,1.709,1.7083,1.7082,1.7072,1.7069,1.7058,1.7065,1.7062,1.7052,1.7049,1.7035,1.7051,1.7037,1.7036,1.7039,1.7009,1.7005,1.6983,1.7019,1.7018,1.7018,0,1.7115,1.7108,1.7086,1.7081,1.7077,1.7066,1.7057,1.7048,1.7041,1.704,1.7034,1.7036,1.7022,1.7033,1.7014,1.7024,1.7018,1.7016,1.7015,1.7014,1.7026,1.7008,1.6976,1.6973,1.7013,1.7013,1.7014,0,1.7093,1.7077,1.7063,1.7059,1.7053,1.7045,1.7042,1.7036,1.703,1.7022,1.7018,1.7008,1.7002,1.6994,1.6994,1.7002,1.6975,1.6985,1.6974,1.6974,1.6968,1.6969,1.6935,1.6964,1.6964,1.6964,1.6964,0,1.7065,1.7051,1.7053,1.7044,1.7029,1.7031,1.7016,1.7013,1.7008,1.6998,1.7002,1.6993,1.6993,1.6983,1.6982,1.6967,1.6964,1.6963,1.6963,1.6963,1.6964,1.696,1.6962,1.6963,1.6963,1.6963,1.6963,0,1.7038,1.7039,1.7023,1.7019,1.7017,1.7007,1.7003,1.6994,1.6993,1.698,1.6978,1.6975,1.6964,1.6963,1.695,1.6949,1.6931,1.6933,1.6934,1.6935,1.6924,1.6925,1.6887,1.6883,1.6913,1.6913,1.6913,0,1.702,1.701,1.7006,1.7,1.6997,1.6988,1.6982,1.6983,1.6977,1.6969,1.6961,1.6951,1.6943,1.6925,1.6922,1.6912,1.6913,1.6901,1.6912,1.6912,1.6914,1.6915,1.6914,1.6899,1.6898,1.6898,1.6898,0,1.6989,1.699,1.6982,1.6975,1.6968,1.6962,1.6956,1.6951,1.6952,1.6944,1.6934,1.6928,1.6915,1.6905,1.6895,1.6891,1.6895,1.6894,1.6891,1.6891,1.6893,1.6893,1.6929,1.6895,1.6896,1.6896,1.6896,1.6896,1.6967,1.6959,1.6955,1.6946,1.6942,1.6937,1.6929,1.6927,1.6919,1.6909,1.691,1.6899,1.6893,1.6881,1.6876,1.6867,1.6871,1.6866,1.6865,1.6864,1.6864,1.6894,1.6865,1.6865,1.6865,1.6865,1.6865,0,1.6937,1.6935,1.6927,1.692,1.6913,1.6918,1.6912,1.6905,1.6896,1.689,1.6883,1.6871,1.6861,1.6857,1.6848,1.6841,1.6843,1.6839,1.6839,1.6839,1.686,1.6864,1.6838,1.6838,1.6838,1.6838,1.6838,1.6838,1.6921,1.6908,1.6908,1.6893,1.6891,1.6881,1.6877,1.6872,1.6868,1.6855,1.6847,1.6846,1.6841,1.6831,1.6823,1.6822,1.6818,1.6814,1.6814,1.6834,1.6837,1.684,1.6843,1.6813,1.6813,1.6793,1.6793,1.6793]}]]